Location: Goldmont Forest
(38.0233°N, 120.2524°W)
Time: 08:42:07
(UTC+00:00)

IRIDIUM 106 - Pass Details

Date: 08 November 2024
Orbit: 776 x 779 km, 86.4° (Epoch: 06 December)

Event Time Altitude Azimuth Distance (km) Brightness Sun altitude
Rises 02:41:11 0° 166° (SSE) 3,246 7.5 -21.1°
Reaches altitude 10° 02:43:35 10° 161° (SSE) 2,322 6.6 -21.6°
Enters shadow 02:46:33 32° 142° (SE) 1,309 5.2 -22.2°
Exits shadow 02:55:36 - 10° (N) 3,110 7.3 -24.0°
Sets 02:56:00 0° 9° (N) 3,268 7.4 -24.1°
